Year,Month,Day,Hour,Minute,Value (Times are PST for temperature in C)
2018,08,09,00,00,18.10
2018,08,09,00,01,18.10
2018,08,09,00,02,18.10
2018,08,09,00,03,18.10
2018,08,09,00,04,18.10
2018,08,09,00,05,18.10
2018,08,09,00,06,18.00
2018,08,09,00,07,18.00
2018,08,09,00,08,18.00
2018,08,09,00,09,18.00
2018,08,09,00,10,17.90
2018,08,09,00,11,17.90
2018,08,09,00,12,17.90
2018,08,09,00,13,17.90
2018,08,09,00,14,17.90
2018,08,09,00,15,17.90
2018,08,09,00,16,17.90
2018,08,09,00,17,17.90
2018,08,09,00,18,17.90
2018,08,09,00,19,17.90
2018,08,09,00,20,17.90
2018,08,09,00,21,17.90
2018,08,09,00,22,17.90
2018,08,09,00,23,17.90
2018,08,09,00,24,17.90
2018,08,09,00,25,17.90
2018,08,09,00,26,17.90
2018,08,09,00,27,17.90
2018,08,09,00,28,17.90
2018,08,09,00,29,17.90
2018,08,09,00,30,17.90
2018,08,09,00,31,17.90
2018,08,09,00,32,18.00
2018,08,09,00,33,18.00
2018,08,09,00,34,18.00
2018,08,09,00,35,18.00
2018,08,09,00,36,18.00
2018,08,09,00,37,18.00
2018,08,09,00,38,18.10
2018,08,09,00,39,18.10
2018,08,09,00,40,18.10
2018,08,09,00,41,18.10
2018,08,09,00,42,18.10
2018,08,09,00,43,18.10
2018,08,09,00,44,18.10
2018,08,09,00,45,18.10
2018,08,09,00,46,18.10
2018,08,09,00,47,18.10
2018,08,09,00,48,18.10
2018,08,09,00,49,18.10
2018,08,09,00,50,18.20
2018,08,09,00,51,18.20
2018,08,09,00,52,18.20
2018,08,09,00,53,18.20
2018,08,09,00,54,18.20
2018,08,09,00,55,18.30
2018,08,09,00,56,18.30
2018,08,09,00,57,18.30
2018,08,09,00,58,18.30
2018,08,09,00,59,18.40
2018,08,09,01,00,18.40
2018,08,09,01,01,18.40
2018,08,09,01,02,18.40
2018,08,09,01,03,18.40
2018,08,09,01,04,18.40
2018,08,09,01,05,18.40
2018,08,09,01,06,18.50
2018,08,09,01,07,18.50
2018,08,09,01,08,18.50
2018,08,09,01,09,18.50
2018,08,09,01,10,18.60
2018,08,09,01,11,18.60
2018,08,09,01,12,18.60
2018,08,09,01,13,18.60
2018,08,09,01,14,18.60
2018,08,09,01,15,18.60
2018,08,09,01,16,18.70
2018,08,09,01,17,18.70
2018,08,09,01,18,18.70
2018,08,09,01,19,18.70
2018,08,09,01,20,18.70
2018,08,09,01,21,18.70
2018,08,09,01,22,18.70
2018,08,09,01,23,18.70
2018,08,09,01,24,18.70
2018,08,09,01,25,18.70
2018,08,09,01,26,18.70
2018,08,09,01,27,18.60
2018,08,09,01,28,18.60
2018,08,09,01,29,18.60
2018,08,09,01,30,18.60
2018,08,09,01,31,18.50
2018,08,09,01,32,18.50
2018,08,09,01,33,18.50
2018,08,09,01,34,18.50
2018,08,09,01,35,18.50
2018,08,09,01,36,18.40
2018,08,09,01,37,18.40
2018,08,09,01,38,18.40
2018,08,09,01,39,18.40
2018,08,09,01,40,18.30
2018,08,09,01,41,18.30
2018,08,09,01,42,18.30
2018,08,09,01,43,18.30
2018,08,09,01,44,18.20
2018,08,09,01,45,18.20
2018,08,09,01,46,18.20
2018,08,09,01,47,18.10
2018,08,09,01,48,18.10
2018,08,09,01,49,18.10
2018,08,09,01,50,18.00
2018,08,09,01,51,18.00
2018,08,09,01,52,17.90
2018,08,09,01,53,17.90
2018,08,09,01,54,17.90
2018,08,09,01,55,17.80
2018,08,09,01,56,17.80
2018,08,09,01,57,17.80
2018,08,09,01,58,17.80
2018,08,09,01,59,17.80
2018,08,09,02,00,17.70
2018,08,09,02,01,17.70
2018,08,09,02,02,17.70
2018,08,09,02,03,17.70
2018,08,09,02,04,17.70
2018,08,09,02,05,17.60
2018,08,09,02,06,17.60
2018,08,09,02,07,17.60
2018,08,09,02,08,17.60
2018,08,09,02,09,17.60
2018,08,09,02,10,17.60
2018,08,09,02,11,17.50
2018,08,09,02,12,17.50
2018,08,09,02,13,17.50
2018,08,09,02,14,17.50
2018,08,09,02,15,17.50
2018,08,09,02,16,17.50
2018,08,09,02,17,17.40
2018,08,09,02,18,17.40
2018,08,09,02,19,17.40
2018,08,09,02,20,17.40
2018,08,09,02,21,17.40
2018,08,09,02,22,17.40
2018,08,09,02,23,17.30
2018,08,09,02,24,17.30
2018,08,09,02,25,17.30
2018,08,09,02,26,17.30
2018,08,09,02,27,17.30
2018,08,09,02,28,17.30
2018,08,09,02,29,17.20
2018,08,09,02,30,17.20
2018,08,09,02,31,17.20
2018,08,09,02,32,17.20
2018,08,09,02,33,17.20
2018,08,09,02,34,17.20
2018,08,09,02,35,17.20
2018,08,09,02,36,17.10
2018,08,09,02,37,17.10
2018,08,09,02,38,17.10
2018,08,09,02,39,17.10
2018,08,09,02,40,17.10
2018,08,09,02,41,17.10
2018,08,09,02,42,17.10
2018,08,09,02,43,17.10
2018,08,09,02,44,17.10
2018,08,09,02,45,17.00
2018,08,09,02,46,17.00
2018,08,09,02,47,17.00
2018,08,09,02,48,17.00
2018,08,09,02,49,17.00
2018,08,09,02,50,16.90
2018,08,09,02,51,16.90
2018,08,09,02,52,16.90
2018,08,09,02,53,16.90
2018,08,09,02,54,16.90
2018,08,09,02,55,16.90
2018,08,09,02,56,16.90
2018,08,09,02,57,16.90
2018,08,09,02,58,16.90
2018,08,09,02,59,16.80
2018,08,09,03,00,16.80
2018,08,09,03,01,16.80
2018,08,09,03,02,16.80
2018,08,09,03,03,16.80
2018,08,09,03,04,16.70
2018,08,09,03,05,16.70
2018,08,09,03,06,16.70
2018,08,09,03,07,16.70
2018,08,09,03,08,16.70
2018,08,09,03,09,16.70
2018,08,09,03,10,16.60
2018,08,09,03,11,16.60
2018,08,09,03,12,16.60
2018,08,09,03,13,16.60
2018,08,09,03,14,16.50
2018,08,09,03,15,16.50
2018,08,09,03,16,16.40
2018,08,09,03,17,16.40
2018,08,09,03,18,16.40
2018,08,09,03,19,16.40
2018,08,09,03,20,16.30
2018,08,09,03,21,16.30
2018,08,09,03,22,16.30
2018,08,09,03,23,16.30
2018,08,09,03,24,16.30
2018,08,09,03,25,16.20
2018,08,09,03,26,16.20
2018,08,09,03,27,16.20
2018,08,09,03,28,16.20
2018,08,09,03,29,16.10
2018,08,09,03,30,16.10
2018,08,09,03,31,16.10
2018,08,09,03,32,16.10
2018,08,09,03,33,16.00
2018,08,09,03,34,16.00
2018,08,09,03,35,16.00
2018,08,09,03,36,15.90
2018,08,09,03,37,15.90
2018,08,09,03,38,15.90
2018,08,09,03,39,15.90
2018,08,09,03,40,15.80
2018,08,09,03,41,15.80
2018,08,09,03,42,15.80
2018,08,09,03,43,15.80
2018,08,09,03,44,15.80
2018,08,09,03,45,15.70
2018,08,09,03,46,15.70
2018,08,09,03,47,15.70
2018,08,09,03,48,15.70
2018,08,09,03,49,15.60
2018,08,09,03,50,15.60
2018,08,09,03,51,15.60
2018,08,09,03,52,15.60
2018,08,09,03,53,15.60
2018,08,09,03,54,15.60
2018,08,09,03,55,15.60
2018,08,09,03,56,15.50
2018,08,09,03,57,15.50
2018,08,09,03,58,15.50
2018,08,09,03,59,15.50
2018,08,09,04,00,15.50
2018,08,09,04,01,15.50
2018,08,09,04,02,15.40
2018,08,09,04,03,15.40
2018,08,09,04,04,15.40
2018,08,09,04,05,15.40
2018,08,09,04,06,15.40
2018,08,09,04,07,15.40
2018,08,09,04,08,15.40
2018,08,09,04,09,15.40
2018,08,09,04,10,15.40
2018,08,09,04,11,15.40
2018,08,09,04,12,15.40
2018,08,09,04,13,15.30
2018,08,09,04,14,15.30
2018,08,09,04,15,15.30
2018,08,09,04,16,15.30
2018,08,09,04,17,15.30
2018,08,09,04,18,15.30
2018,08,09,04,19,15.30
2018,08,09,04,20,15.40
2018,08,09,04,21,15.40
2018,08,09,04,22,15.40
2018,08,09,04,23,15.40
2018,08,09,04,24,15.40
2018,08,09,04,25,15.40
2018,08,09,04,26,15.40
2018,08,09,04,27,15.40
2018,08,09,04,28,15.40
2018,08,09,04,29,15.30
2018,08,09,04,30,15.20
2018,08,09,04,31,15.10
2018,08,09,04,32,15.10
2018,08,09,04,33,15.00
2018,08,09,04,34,14.90
2018,08,09,04,35,14.80
2018,08,09,04,36,14.80
2018,08,09,04,37,14.70
2018,08,09,04,38,14.60
2018,08,09,04,39,14.60
2018,08,09,04,40,14.50
2018,08,09,04,41,14.50
2018,08,09,04,42,14.40
2018,08,09,04,43,14.40
2018,08,09,04,44,14.40
2018,08,09,04,45,14.40
2018,08,09,04,46,14.30
2018,08,09,04,47,14.30
2018,08,09,04,48,14.30
2018,08,09,04,49,14.20
2018,08,09,04,50,14.20
2018,08,09,04,51,14.20
2018,08,09,04,52,14.20
2018,08,09,04,53,14.20
2018,08,09,04,54,14.10
2018,08,09,04,55,14.10
2018,08,09,04,56,14.10
2018,08,09,04,57,14.10
2018,08,09,04,58,14.10
2018,08,09,04,59,14.10
2018,08,09,05,00,14.10
2018,08,09,05,01,14.10
2018,08,09,05,02,14.10
2018,08,09,05,03,14.10
2018,08,09,05,04,14.10
2018,08,09,05,05,14.10
2018,08,09,05,06,14.10
2018,08,09,05,07,14.10
2018,08,09,05,08,14.10
2018,08,09,05,09,14.10
2018,08,09,05,10,14.10
2018,08,09,05,11,14.10
2018,08,09,05,12,14.10
2018,08,09,05,13,14.00
2018,08,09,05,14,14.00
2018,08,09,05,15,14.00
2018,08,09,05,16,14.00
2018,08,09,05,17,14.00
2018,08,09,05,18,14.00
2018,08,09,05,19,13.90
2018,08,09,05,20,13.90
2018,08,09,05,21,13.90
2018,08,09,05,22,13.90
2018,08,09,05,23,13.90
2018,08,09,05,24,14.00
2018,08,09,05,25,14.00
2018,08,09,05,26,14.00
2018,08,09,05,27,14.00
2018,08,09,05,28,14.00
2018,08,09,05,29,14.00
2018,08,09,05,30,14.00
2018,08,09,05,31,14.00
2018,08,09,05,32,14.00
2018,08,09,05,33,14.00
2018,08,09,05,34,14.10
2018,08,09,05,35,14.10
2018,08,09,05,36,14.10
2018,08,09,05,37,14.10
2018,08,09,05,38,14.10
2018,08,09,05,39,14.10
2018,08,09,05,40,14.10
2018,08,09,05,41,14.10
2018,08,09,05,42,14.10
2018,08,09,05,43,14.10
2018,08,09,05,44,14.10
2018,08,09,05,45,14.10
2018,08,09,05,46,14.10
2018,08,09,05,47,14.10
2018,08,09,05,48,14.10
2018,08,09,05,49,14.10
2018,08,09,05,50,14.10
2018,08,09,05,51,14.10
2018,08,09,05,52,14.10
2018,08,09,05,53,14.10
2018,08,09,05,54,14.10
2018,08,09,05,55,14.10
2018,08,09,05,56,14.10
2018,08,09,05,57,14.10
2018,08,09,05,58,14.10
2018,08,09,05,59,14.10
2018,08,09,06,00,14.10
2018,08,09,06,01,14.10
2018,08,09,06,02,14.10
2018,08,09,06,03,14.10
2018,08,09,06,04,14.10
2018,08,09,06,05,14.10
2018,08,09,06,06,14.10
2018,08,09,06,07,14.10
2018,08,09,06,08,14.10
2018,08,09,06,09,14.10
2018,08,09,06,10,14.10
2018,08,09,06,11,14.10
2018,08,09,06,12,14.10
2018,08,09,06,13,14.10
2018,08,09,06,14,14.10
2018,08,09,06,15,14.10
2018,08,09,06,16,14.10
2018,08,09,06,17,14.10
2018,08,09,06,18,14.10
2018,08,09,06,19,14.10
2018,08,09,06,20,14.10
2018,08,09,06,21,14.10
2018,08,09,06,22,14.10
2018,08,09,06,23,14.10
2018,08,09,06,24,14.10
2018,08,09,06,25,14.10
2018,08,09,06,26,14.10
2018,08,09,06,27,14.10
2018,08,09,06,28,14.10
2018,08,09,06,29,14.10
2018,08,09,06,30,14.10
2018,08,09,06,31,14.20
2018,08,09,06,32,14.20
2018,08,09,06,33,14.20
2018,08,09,06,34,14.20
2018,08,09,06,35,14.20
2018,08,09,06,36,14.20
2018,08,09,06,37,14.20
2018,08,09,06,38,14.20
2018,08,09,06,39,14.20
2018,08,09,06,40,14.20
2018,08,09,06,41,14.20
2018,08,09,06,42,14.20
2018,08,09,06,43,14.20
2018,08,09,06,44,14.20
2018,08,09,06,45,14.20
2018,08,09,06,46,14.20
2018,08,09,06,47,14.20
2018,08,09,06,48,14.30
2018,08,09,06,49,14.30
2018,08,09,06,50,14.30
2018,08,09,06,51,14.30
2018,08,09,06,52,14.30
2018,08,09,06,53,14.40
2018,08,09,06,54,14.40
2018,08,09,06,55,14.40
2018,08,09,06,56,14.40
2018,08,09,06,57,14.40
2018,08,09,06,58,14.50
2018,08,09,06,59,14.50
2018,08,09,07,00,14.60
2018,08,09,07,01,14.70
2018,08,09,07,02,14.80
2018,08,09,07,03,14.90
2018,08,09,07,04,15.00
2018,08,09,07,05,15.00
2018,08,09,07,06,15.10
2018,08,09,07,07,15.20
2018,08,09,07,08,15.20
2018,08,09,07,09,15.30
2018,08,09,07,10,15.30
2018,08,09,07,11,15.40
2018,08,09,07,12,15.50
2018,08,09,07,13,15.50
2018,08,09,07,14,15.60
2018,08,09,07,15,15.60
2018,08,09,07,16,15.60
2018,08,09,07,17,15.70
2018,08,09,07,18,15.70
2018,08,09,07,19,15.70
2018,08,09,07,20,15.70
2018,08,09,07,21,15.70
2018,08,09,07,22,15.70
2018,08,09,07,23,15.80
2018,08,09,07,24,15.80
2018,08,09,07,25,15.80
2018,08,09,07,26,15.80
2018,08,09,07,27,15.80
2018,08,09,07,28,15.80
2018,08,09,07,29,15.90
2018,08,09,07,30,15.90
2018,08,09,07,31,15.90
2018,08,09,07,32,15.90
2018,08,09,07,33,15.90
2018,08,09,07,34,15.90
2018,08,09,07,35,15.90
2018,08,09,07,36,15.90
2018,08,09,07,37,15.90
2018,08,09,07,38,15.90
2018,08,09,07,39,15.90
2018,08,09,07,40,15.90
2018,08,09,07,41,15.80
2018,08,09,07,42,15.80
2018,08,09,07,43,15.70
2018,08,09,07,44,15.70
2018,08,09,07,45,15.70
2018,08,09,07,46,15.70
2018,08,09,07,47,15.70
2018,08,09,07,48,15.70
2018,08,09,07,49,15.80
2018,08,09,07,50,15.80
2018,08,09,07,51,15.80
2018,08,09,07,52,15.70
2018,08,09,07,53,15.70
2018,08,09,07,54,15.70
2018,08,09,07,55,15.70
2018,08,09,07,56,15.80
2018,08,09,07,57,15.70
2018,08,09,07,58,15.70
2018,08,09,07,59,15.70
2018,08,09,08,00,15.70
2018,08,09,08,01,15.70
2018,08,09,08,02,15.70
2018,08,09,08,03,15.60
2018,08,09,08,04,15.60
2018,08,09,08,05,15.60
2018,08,09,08,06,15.60
2018,08,09,08,07,15.60
2018,08,09,08,08,15.60
2018,08,09,08,09,15.60
2018,08,09,08,10,15.70
2018,08,09,08,11,15.70
2018,08,09,08,12,15.80
2018,08,09,08,13,15.80
2018,08,09,08,14,15.80
2018,08,09,08,15,15.90
2018,08,09,08,16,15.90
2018,08,09,08,17,16.00
2018,08,09,08,18,16.00
2018,08,09,08,19,16.00
2018,08,09,08,20,16.10
2018,08,09,08,21,16.20
2018,08,09,08,22,16.30
2018,08,09,08,23,16.40
2018,08,09,08,24,16.50
2018,08,09,08,25,16.60
2018,08,09,08,26,16.60
2018,08,09,08,27,16.80
2018,08,09,08,28,16.90
2018,08,09,08,29,17.00
2018,08,09,08,30,17.10
2018,08,09,08,31,17.10
2018,08,09,08,32,17.20
2018,08,09,08,33,17.20
2018,08,09,08,34,17.10
2018,08,09,08,35,17.00
2018,08,09,08,36,17.00
2018,08,09,08,37,16.90
2018,08,09,08,38,16.90
2018,08,09,08,39,16.90
2018,08,09,08,40,16.90
2018,08,09,08,41,16.90
2018,08,09,08,42,16.90
2018,08,09,08,43,16.90
2018,08,09,08,44,16.90
2018,08,09,08,45,17.00
2018,08,09,08,46,17.00
2018,08,09,08,47,17.10
2018,08,09,08,48,17.20
2018,08,09,08,49,17.20
2018,08,09,08,50,17.30
2018,08,09,08,51,17.30
2018,08,09,08,52,17.30
2018,08,09,08,53,17.40
2018,08,09,08,54,17.40
2018,08,09,08,55,17.40
2018,08,09,08,56,17.50
2018,08,09,08,57,17.50
2018,08,09,08,58,17.50
2018,08,09,08,59,17.60
2018,08,09,09,00,17.50
2018,08,09,09,01,17.50
2018,08,09,09,02,17.40
2018,08,09,09,03,17.30
2018,08,09,09,04,17.20
2018,08,09,09,05,17.20
2018,08,09,09,06,17.20
2018,08,09,09,07,17.20
2018,08,09,09,08,17.20
2018,08,09,09,09,17.20
2018,08,09,09,10,17.20
2018,08,09,09,11,17.20
2018,08,09,09,12,17.20
2018,08,09,09,13,17.20
2018,08,09,09,14,17.30
2018,08,09,09,15,17.30
2018,08,09,09,16,17.30
2018,08,09,09,17,17.30
2018,08,09,09,18,17.30
2018,08,09,09,19,17.40
2018,08,09,09,20,17.40
2018,08,09,09,21,17.40
2018,08,09,09,22,17.50
2018,08,09,09,23,17.50
2018,08,09,09,24,17.60
2018,08,09,09,25,17.60
2018,08,09,09,26,17.60
2018,08,09,09,27,17.70
2018,08,09,09,28,17.70
2018,08,09,09,29,17.70
2018,08,09,09,30,17.80
2018,08,09,09,31,17.80
2018,08,09,09,32,17.80
2018,08,09,09,33,17.90
2018,08,09,09,34,17.90
2018,08,09,09,35,17.90
2018,08,09,09,36,17.90
2018,08,09,09,37,17.90
2018,08,09,09,38,17.90
2018,08,09,09,39,17.90
2018,08,09,09,40,17.90
2018,08,09,09,41,17.90
2018,08,09,09,42,17.90
2018,08,09,09,43,17.80
2018,08,09,09,44,17.80
2018,08,09,09,45,17.80
2018,08,09,09,46,17.80
2018,08,09,09,47,17.80
2018,08,09,09,48,17.80
2018,08,09,09,49,17.80
2018,08,09,09,50,17.80
2018,08,09,09,51,17.80
2018,08,09,09,52,17.80
2018,08,09,09,53,17.80
2018,08,09,09,54,17.80
2018,08,09,09,55,17.70
2018,08,09,09,56,17.70
2018,08,09,09,57,17.60
2018,08,09,09,58,17.50
2018,08,09,09,59,17.40
2018,08,09,10,00,17.30
2018,08,09,10,01,17.20
2018,08,09,10,02,17.20
2018,08,09,10,03,17.10
2018,08,09,10,04,17.00
2018,08,09,10,05,16.90
2018,08,09,10,06,16.90
2018,08,09,10,07,16.80
2018,08,09,10,08,16.80
2018,08,09,10,09,16.80
2018,08,09,10,10,16.80
2018,08,09,10,11,16.80
2018,08,09,10,12,16.90
2018,08,09,10,13,16.90
2018,08,09,10,14,16.80
2018,08,09,10,15,16.80
2018,08,09,10,16,16.70
2018,08,09,10,17,16.70
2018,08,09,10,18,16.70
2018,08,09,10,19,16.70
2018,08,09,10,20,16.70
2018,08,09,10,21,16.70
2018,08,09,10,22,16.70
2018,08,09,10,23,16.80
2018,08,09,10,24,16.80
2018,08,09,10,25,17.00
2018,08,09,10,26,17.10
2018,08,09,10,27,17.20
2018,08,09,10,28,17.40
2018,08,09,10,29,17.50
2018,08,09,10,30,17.60
2018,08,09,10,31,17.60
2018,08,09,10,32,17.70
2018,08,09,10,33,17.70
2018,08,09,10,34,17.70
2018,08,09,10,35,17.80
2018,08,09,10,36,17.80
2018,08,09,10,37,17.80
2018,08,09,10,38,17.90
2018,08,09,10,39,17.90
2018,08,09,10,40,18.00
2018,08,09,10,41,18.00
2018,08,09,10,42,18.10
2018,08,09,10,43,18.10
2018,08,09,10,44,18.10
2018,08,09,10,45,18.20
2018,08,09,10,46,18.20
2018,08,09,10,47,18.30
2018,08,09,10,48,18.40
2018,08,09,10,49,18.40
2018,08,09,10,50,18.40
2018,08,09,10,51,18.40
2018,08,09,10,52,18.50
2018,08,09,10,53,18.50
2018,08,09,10,54,18.60
2018,08,09,10,55,18.60
2018,08,09,10,56,18.60
2018,08,09,10,57,18.60
2018,08,09,10,58,18.60
2018,08,09,10,59,18.70
2018,08,09,11,00,18.80
2018,08,09,11,01,18.90
2018,08,09,11,02,19.00
2018,08,09,11,03,19.10
2018,08,09,11,04,19.10
2018,08,09,11,05,19.00
2018,08,09,11,06,18.90
2018,08,09,11,07,18.70
2018,08,09,11,08,18.60
2018,08,09,11,09,18.40
2018,08,09,11,10,18.30
2018,08,09,11,11,18.10
2018,08,09,11,12,17.90
2018,08,09,11,13,17.80
2018,08,09,11,14,17.70
2018,08,09,11,15,17.70
2018,08,09,11,16,17.70
2018,08,09,11,17,17.70
2018,08,09,11,18,17.70
2018,08,09,11,19,17.70
2018,08,09,11,20,17.70
2018,08,09,11,21,17.70
2018,08,09,11,22,17.70
2018,08,09,11,23,17.70
2018,08,09,11,24,17.70
2018,08,09,11,25,17.70
2018,08,09,11,26,17.70
2018,08,09,11,27,17.70
2018,08,09,11,28,17.80
2018,08,09,11,29,17.80
2018,08,09,11,30,17.90
2018,08,09,11,31,18.00
2018,08,09,11,32,18.00
2018,08,09,11,33,18.10
2018,08,09,11,34,18.20
2018,08,09,11,35,18.30
2018,08,09,11,36,18.40
2018,08,09,11,37,18.50
2018,08,09,11,38,18.60
2018,08,09,11,39,18.70
2018,08,09,11,40,18.80
2018,08,09,11,41,18.90
2018,08,09,11,42,18.90
2018,08,09,11,43,18.90
2018,08,09,11,44,18.90
2018,08,09,11,45,18.90
2018,08,09,11,46,18.90
2018,08,09,11,47,18.80
2018,08,09,11,48,18.80
2018,08,09,11,49,18.90
2018,08,09,11,50,18.90
2018,08,09,11,51,19.00
2018,08,09,11,52,19.00
2018,08,09,11,53,19.10
2018,08,09,11,54,19.10
2018,08,09,11,55,19.20
2018,08,09,11,56,19.20
2018,08,09,11,57,19.20
2018,08,09,11,58,19.20
2018,08,09,11,59,19.20
2018,08,09,12,00,19.20
2018,08,09,12,01,19.20
2018,08,09,12,02,19.20
2018,08,09,12,03,19.20
2018,08,09,12,04,19.20
2018,08,09,12,05,19.20
2018,08,09,12,06,19.30
2018,08,09,12,07,19.40
2018,08,09,12,08,19.50
2018,08,09,12,09,19.60
2018,08,09,12,10,19.50
2018,08,09,12,11,19.40
2018,08,09,12,12,19.30
2018,08,09,12,13,19.20
2018,08,09,12,14,19.10
2018,08,09,12,15,19.00
2018,08,09,12,16,18.90
2018,08,09,12,17,18.90
2018,08,09,12,18,18.90
2018,08,09,12,19,19.00
2018,08,09,12,20,19.00
2018,08,09,12,21,19.10
2018,08,09,12,22,19.10
2018,08,09,12,23,19.20
2018,08,09,12,24,19.30
2018,08,09,12,25,19.40
2018,08,09,12,26,19.50
2018,08,09,12,27,19.60
2018,08,09,12,28,19.60
2018,08,09,12,29,19.60
2018,08,09,12,30,19.60
2018,08,09,12,31,19.60
2018,08,09,12,32,19.50
2018,08,09,12,33,19.50
2018,08,09,12,34,19.40
2018,08,09,12,35,19.40
2018,08,09,12,36,19.50
2018,08,09,12,37,19.50
2018,08,09,12,38,19.60
2018,08,09,12,39,19.60
2018,08,09,12,40,19.70
2018,08,09,12,41,19.80
2018,08,09,12,42,19.80
2018,08,09,12,43,19.70
2018,08,09,12,44,19.70
2018,08,09,12,45,19.80
2018,08,09,12,46,19.90
2018,08,09,12,47,19.90
2018,08,09,12,48,19.90
2018,08,09,12,49,19.90
2018,08,09,12,50,20.00
2018,08,09,12,51,20.00
2018,08,09,12,52,20.10
2018,08,09,12,53,20.20
2018,08,09,12,54,20.20
2018,08,09,12,55,20.20
2018,08,09,12,56,20.10
2018,08,09,12,57,20.10
2018,08,09,12,58,19.90
2018,08,09,12,59,19.80
2018,08,09,13,00,19.80
2018,08,09,13,01,19.80
2018,08,09,13,02,19.80
2018,08,09,13,03,19.80
2018,08,09,13,04,19.80
2018,08,09,13,05,19.80
2018,08,09,13,06,19.80
2018,08,09,13,07,19.80
2018,08,09,13,08,19.80
2018,08,09,13,09,19.90
2018,08,09,13,10,20.00
2018,08,09,13,11,20.10
2018,08,09,13,12,20.20
2018,08,09,13,13,20.30
2018,08,09,13,14,20.30
2018,08,09,13,15,20.30
2018,08,09,13,16,20.40
2018,08,09,13,17,20.40
2018,08,09,13,18,20.40
2018,08,09,13,19,20.40
2018,08,09,13,20,20.50
2018,08,09,13,21,20.60
2018,08,09,13,22,20.70
2018,08,09,13,23,20.70
2018,08,09,13,24,20.70
2018,08,09,13,25,20.70
2018,08,09,13,26,20.70
2018,08,09,13,27,20.70
2018,08,09,13,28,20.70
2018,08,09,13,29,20.70
2018,08,09,13,30,20.70
2018,08,09,13,31,20.70
2018,08,09,13,32,20.70
2018,08,09,13,33,20.70
2018,08,09,13,34,20.70
2018,08,09,13,35,20.60
2018,08,09,13,36,20.50
2018,08,09,13,37,20.40
2018,08,09,13,38,20.40
2018,08,09,13,39,20.30
2018,08,09,13,40,20.20
2018,08,09,13,41,20.10
2018,08,09,13,42,20.10
2018,08,09,13,43,20.00
2018,08,09,13,44,19.90
2018,08,09,13,45,19.80
2018,08,09,13,46,19.70
2018,08,09,13,47,19.70
2018,08,09,13,48,19.60
2018,08,09,13,49,19.60
2018,08,09,13,50,19.70
2018,08,09,13,51,19.70
2018,08,09,13,52,19.70
2018,08,09,13,53,19.60
2018,08,09,13,54,19.50
2018,08,09,13,55,19.40
2018,08,09,13,56,19.20
2018,08,09,13,57,19.00
2018,08,09,13,58,18.90
2018,08,09,13,59,18.80
2018,08,09,14,00,18.80
2018,08,09,14,01,18.80
2018,08,09,14,02,18.80
2018,08,09,14,03,18.80
2018,08,09,14,04,18.80
2018,08,09,14,05,18.90
2018,08,09,14,06,18.90
2018,08,09,14,07,18.90
2018,08,09,14,08,18.90
2018,08,09,14,09,18.80
2018,08,09,14,10,18.80
2018,08,09,14,11,18.70
2018,08,09,14,12,18.70
2018,08,09,14,13,18.80
2018,08,09,14,14,18.90
2018,08,09,14,15,19.00
2018,08,09,14,16,19.10
2018,08,09,14,17,19.20
2018,08,09,14,18,19.30
2018,08,09,14,19,19.30
2018,08,09,14,20,19.40
2018,08,09,14,21,19.50
2018,08,09,14,22,19.50
2018,08,09,14,23,19.60
2018,08,09,14,24,19.60
2018,08,09,14,25,19.70
2018,08,09,14,26,19.70
2018,08,09,14,27,19.70
2018,08,09,14,28,19.80
2018,08,09,14,29,19.80
2018,08,09,14,30,19.90
2018,08,09,14,31,19.90
2018,08,09,14,32,20.00
2018,08,09,14,33,20.00
2018,08,09,14,34,19.80
2018,08,09,14,35,19.70
2018,08,09,14,36,19.60
2018,08,09,14,37,19.60
2018,08,09,14,38,19.60
2018,08,09,14,39,19.70
2018,08,09,14,40,19.80
2018,08,09,14,41,20.00
2018,08,09,14,42,20.20
2018,08,09,14,43,20.40
2018,08,09,14,44,20.60
2018,08,09,14,45,20.90
2018,08,09,14,46,21.10
2018,08,09,14,47,21.30
2018,08,09,14,48,21.40
2018,08,09,14,49,21.60
2018,08,09,14,50,21.70
2018,08,09,14,51,21.70
2018,08,09,14,52,21.80
2018,08,09,14,53,21.90
2018,08,09,14,54,22.00
2018,08,09,14,55,22.20
2018,08,09,14,56,22.40
2018,08,09,14,57,22.60
2018,08,09,14,58,22.80
2018,08,09,14,59,23.10
2018,08,09,15,00,23.30
2018,08,09,15,01,23.60
2018,08,09,15,02,23.90
2018,08,09,15,03,24.10
2018,08,09,15,04,24.40
2018,08,09,15,05,24.60
2018,08,09,15,06,24.80
2018,08,09,15,07,24.90
2018,08,09,15,08,25.10
2018,08,09,15,09,25.20
2018,08,09,15,10,25.40
2018,08,09,15,11,25.50
2018,08,09,15,12,25.60
2018,08,09,15,13,25.60
2018,08,09,15,14,25.40
2018,08,09,15,15,25.30
2018,08,09,15,16,25.10
2018,08,09,15,17,25.00
2018,08,09,15,18,24.90
2018,08,09,15,19,24.70
2018,08,09,15,20,24.60
2018,08,09,15,21,24.60
2018,08,09,15,22,24.60
2018,08,09,15,23,24.60
2018,08,09,15,24,24.60
2018,08,09,15,25,24.50
2018,08,09,15,26,24.50
2018,08,09,15,27,24.40
2018,08,09,15,28,24.30
2018,08,09,15,29,24.10
2018,08,09,15,30,24.00
2018,08,09,15,31,23.90
2018,08,09,15,32,23.80
2018,08,09,15,33,23.70
2018,08,09,15,34,23.70
2018,08,09,15,35,23.60
2018,08,09,15,36,23.60
2018,08,09,15,37,23.70
2018,08,09,15,38,23.80
2018,08,09,15,39,23.90
2018,08,09,15,40,24.10
2018,08,09,15,41,24.30
2018,08,09,15,42,24.50
2018,08,09,15,43,24.60
2018,08,09,15,44,24.70
2018,08,09,15,45,24.80
2018,08,09,15,46,24.90
2018,08,09,15,47,24.90
2018,08,09,15,48,25.00
2018,08,09,15,49,25.00
2018,08,09,15,50,25.00
2018,08,09,15,51,25.00
2018,08,09,15,52,25.00
2018,08,09,15,53,25.00
2018,08,09,15,54,24.90
2018,08,09,15,55,24.90
2018,08,09,15,56,24.80
2018,08,09,15,57,24.70
2018,08,09,15,58,24.60
2018,08,09,15,59,24.50
2018,08,09,16,00,24.40
2018,08,09,16,01,24.30
2018,08,09,16,02,24.20
2018,08,09,16,03,24.20
2018,08,09,16,04,24.20
2018,08,09,16,05,24.20
2018,08,09,16,06,24.20
2018,08,09,16,07,24.30
2018,08,09,16,08,24.40
2018,08,09,16,09,24.50
2018,08,09,16,10,24.70
2018,08,09,16,11,24.80
2018,08,09,16,12,24.90
2018,08,09,16,13,25.10
2018,08,09,16,14,25.20
2018,08,09,16,15,25.30
2018,08,09,16,16,25.40
2018,08,09,16,17,25.50
2018,08,09,16,18,25.60
2018,08,09,16,19,25.70
2018,08,09,16,20,25.80
2018,08,09,16,21,25.90
2018,08,09,16,22,26.00
2018,08,09,16,23,26.10
2018,08,09,16,24,26.10
2018,08,09,16,25,26.10
2018,08,09,16,26,26.00
2018,08,09,16,27,25.90
2018,08,09,16,28,25.80
2018,08,09,16,29,25.60
2018,08,09,16,30,25.40
2018,08,09,16,31,25.20
2018,08,09,16,32,25.00
2018,08,09,16,33,24.90
2018,08,09,16,34,24.80
2018,08,09,16,35,24.70
2018,08,09,16,36,24.60
2018,08,09,16,37,24.50
2018,08,09,16,38,24.40
2018,08,09,16,39,24.40
2018,08,09,16,40,24.40
2018,08,09,16,41,24.40
2018,08,09,16,42,24.40
2018,08,09,16,43,24.40
2018,08,09,16,44,24.30
2018,08,09,16,45,24.20
2018,08,09,16,46,24.20
2018,08,09,16,47,24.20
2018,08,09,16,48,24.20
2018,08,09,16,49,24.20
2018,08,09,16,50,24.20
2018,08,09,16,51,24.10
2018,08,09,16,52,24.10
2018,08,09,16,53,24.20
2018,08,09,16,54,24.20
2018,08,09,16,55,24.20
2018,08,09,16,56,24.30
2018,08,09,16,57,24.30
2018,08,09,16,58,24.40
2018,08,09,16,59,24.50
2018,08,09,17,00,24.50
2018,08,09,17,01,24.60
2018,08,09,17,02,24.60
2018,08,09,17,03,24.70
2018,08,09,17,04,24.70
2018,08,09,17,05,24.70
2018,08,09,17,06,24.70
2018,08,09,17,07,24.70
2018,08,09,17,08,24.80
2018,08,09,17,09,24.80
2018,08,09,17,10,24.80
2018,08,09,17,11,24.80
2018,08,09,17,12,24.80
2018,08,09,17,13,24.90
2018,08,09,17,14,25.00
2018,08,09,17,15,25.00
2018,08,09,17,16,25.10
2018,08,09,17,17,25.10
2018,08,09,17,18,25.10
2018,08,09,17,19,25.10